Regional Weather Roundup
Issued by NWS

Home | Current Version | Previous Version | Graphics & Text | Print | Product List | Glossary On
Versions: 1 2 3 4 5 6 7 8 9 10 11 12 13 14 15 16 17 18 19 20 21 22 23 24 25 26 27 28 29 30 31 32 33 34 35 36 37 38 39 40 41 42 43 44 45 46 47 48 49 50
000
ASUS43 KBIS 191202
RWRND

NORTH DAKOTA REGIONAL WEATHER ROUNDUP
NATIONAL WEATHER SERVICE BISMARCK ND
600 AM CST THU JAN 19 2017

NOTE: "FAIR" INDICATES FEW OR NO CLOUDS BELOW 12,000 FEET WITH NO
SIGNIFICANT WEATHER AND/OR OBSTRUCTIONS TO VISIBILITY.


NDZ001>003-009>011-017-191300-
NORTHWEST NORTH DAKOTA

CITY           SKY/WX    TMP DP  RH WIND       PRES   REMARKS
WILLISTON      FAIR      19  17  92 CALM      29.49F
6HR MIN TEMP:  16; 6HR MAX TEMP:  25;

MINOT          FAIR      25  21  85 E7        29.48S WCI  17
MINOT AFB      CLOUDY    23  19  86 CALM      29.47S
$$

NDZ018>021-031>035-040>046-191300-
SOUTHWEST NORTH DAKOTA

CITY           SKY/WX    TMP DP  RH WIND       PRES   REMARKS
BISMARCK       FAIR      14  11  87 E5        29.55F WCI   6
6HR MIN TEMP:   8; 6HR MAX TEMP:  23;

DICKINSON      FAIR      23  16  74 W6        29.48S WCI  16
GARRISON         N/A     17  15  92 CALM      29.51R
6HR MIN TEMP:  14; 6HR MAX TEMP:  25;

HETTINGER ARPT CLOUDY     9   7  92 W3        29.52F
$$

NDZ004>008-012>016-024-026-027-054-191300-
NORTHEAST NORTH DAKOTA

CITY           SKY/WX    TMP DP  RH WIND       PRES   REMARKS
GRAND FORKS    CLOUDY    25  19  78 S10       29.59S WCI  15
GRND FRKS AFB  CLOUDY    22  19  89 S9        29.57F WCI  11
DEVILS LAKE    FAIR      20  16  84 SE7       29.51F WCI  11
$$

NDZ022-023-025-028>030-036>039-047>053-191300-
SOUTHEAST NORTH DAKOTA

CITY           SKY/WX    TMP DP  RH WIND       PRES   REMARKS
FARGO          FOG       25  24  96 SE12      29.63F VSB 3/4 WCI  14
6HR MIN TEMP:  25; 6HR MAX TEMP:  30;

JAMESTOWN      FAIR      19  15  84 S7        29.55F WCI  10
$$





USA.gov is the U.S. government's official web portal to all federal, state and local government web resources and services.